User: anonymous   Login
Location: Innsbruck
(47.2657°N, 11.3914°E)
Time: 05:05:21
(UTC+01:00)
Language:

EO-88 - Orbit

View from above orbital plane
View from above orbital plane
View from above satellite
View from above satellite

Ground track
Ground track

The orbit data is extracted from the following two-line orbital elements,

1 42017U 17008BX  21339.72352422  .00004691  00000-0  16618-3 0  9990
2 42017  97.2971  44.2052 0004944 204.7962 155.3042 15.29585255267427
Epoch (UTC): 05 December 2021 17:21:52
Eccentricity: 0.0004944
inclination: 97.2971°
perigee height: 473 km
apogee height: 480 km
right ascension of ascending node: 44.2052°
argument of perigee: 204.7962°
revolutions per day: 15.29585255
mean anomaly at epoch: 155.3042°
orbit number at epoch: 26742

The dashed part of the orbit path shows where the satellite is in the earth's shadow,  

DLR